Weather History for Minneapolis Flying Cloud, MN

Change the Weather History Date:

Sunday, July 14, 2013

  Actual Average Record
Temperature  
Mean Temperature 77 °F -  
Max Temperature 84 °F 81 °F 93 °F (2005)
Min Temperature 70 °F 62 °F 55 °F (2008)
Cooling Degree Days 12    
Growing Degree Days 27 (Base 50)    
Moisture  
Dew Point 64 °F    
Average Humidity 65    
Maximum Humidity 81    
Minimum Humidity 49    
Precipitation  
Precipitation 0.00 in - - ()
Sea Level Pressure  
Sea Level Pressure 30.11 in    
Wind  
Wind Speed 8 mph (SSE)    
Max Wind Speed 13 mph    
Max Gust Speed -    
Visibility 10 miles    
Events      
Averages and records for this station are not official NWS values.
T = Trace of Precipitation, MM = Missing Value Source: NWS Daily Summary

Daily Weather History Graph

Daily Weather History Graph

Search for Another Location

Airport:

Trip Planner

Search our weather history database for the weather conditions in past years. The results will help you decide how hot, cold, wet, or windy it might be!

Date:

Astronomy

Jul. 14, 2013 Rise Set
Actual Time 5:41 AM CDT 8:57 PM CDT
Civil Twilight 5:05 AM CDT 9:33 PM CDT
Nautical Twilight 4:19 AM CDT 10:19 PM CDT
Astronomical Twilight 3:21 AM CDT 11:16 PM CDT
Moon 12:17 PM CDT (7/14) 11:50 PM CDT (7/14)
Length of Visible Light 16h 27m
Length of Day
15h 16m
Waxing Crescent, 35% of the Moon is Illuminated
Jul 14
Waxing Crescent
Jul 15
First Quarter
Jul 22
Full
Jul 29
Last Quarter
Aug 6
New

Hourly Weather History & Observations

Time (CDT) Temp. Heat Index Dew Point Humidity Pressure Visibility Wind Dir Wind Speed Gust Speed Precip Events Conditions
12:53 AM 71.1 °F - 61.0 °F 70% 30.07 in 10.0 mi SSE 8.1 mph - N/A   Overcast
1:53 AM 71.1 °F - 62.1 °F 73% 30.07 in 10.0 mi SE 6.9 mph - N/A   Overcast
2:53 AM 70.0 °F - 63.0 °F 78% 30.06 in 10.0 mi SE 8.1 mph - N/A   Overcast
3:53 AM 70.0 °F - 63.0 °F 78% 30.06 in 10.0 mi SE 6.9 mph - N/A   Overcast
4:53 AM 70.0 °F - 63.0 °F 78% 30.05 in 10.0 mi ESE 8.1 mph - N/A   Overcast
5:53 AM 70.0 °F - 64.0 °F 81% 30.07 in 10.0 mi SE 9.2 mph - N/A   Overcast
6:53 AM 71.1 °F - 63.0 °F 75% 30.09 in 10.0 mi South 6.9 mph - N/A   Overcast
7:53 AM 72.0 °F - 62.1 °F 71% 30.10 in 10.0 mi South 9.2 mph - N/A   Overcast
8:53 AM 73.0 °F - 62.1 °F 68% 30.12 in 10.0 mi South 8.1 mph - N/A   Overcast
9:53 AM 73.0 °F - 64.0 °F 73% 30.12 in 10.0 mi SSE 6.9 mph - 0.00 in   Mostly Cloudy
10:53 AM 78.1 °F - 64.0 °F 62% 30.13 in 10.0 mi South 9.2 mph - N/A   Scattered Clouds
11:53 AM 82.0 °F 83.4 °F 64.0 °F 54% 30.13 in 10.0 mi South 12.7 mph - N/A   Clear
12:53 PM 82.0 °F 83.4 °F 64.0 °F 54% 30.13 in 10.0 mi SSW 9.2 mph - N/A   Partly Cloudy
1:53 PM 84.0 °F 85.4 °F 64.0 °F 51% 30.12 in 10.0 mi SSE 6.9 mph - N/A   Partly Cloudy
2:53 PM 82.9 °F 84.6 °F 64.9 °F 54% 30.12 in 10.0 mi SSE 9.2 mph - N/A   Partly Cloudy
3:53 PM 84.0 °F 85.8 °F 64.9 °F 53% 30.12 in 10.0 mi SSE 10.4 mph - N/A   Clear
4:53 PM 84.9 °F 86.1 °F 64.0 °F 49% 30.12 in 10.0 mi South 8.1 mph - N/A   Clear
5:53 PM 82.9 °F 84.4 °F 64.0 °F 53% 30.11 in 10.0 mi SSE 9.2 mph - N/A   Clear
6:53 PM 82.9 °F 85.0 °F 66.0 °F 56% 30.12 in 10.0 mi SSW 6.9 mph - N/A   Clear
7:53 PM 80.1 °F 82.3 °F 66.9 °F 64% 30.13 in 10.0 mi SSE 3.5 mph - N/A   Clear
8:53 PM 79.0 °F - 66.0 °F 64% 30.13 in 10.0 mi SE 5.8 mph - N/A   Partly Cloudy
9:53 PM 79.0 °F - 66.0 °F 64% 30.15 in 9.0 mi SE 3.5 mph - N/A   Clear
10:53 PM 77.0 °F - 66.0 °F 69% 30.16 in 10.0 mi ESE 3.5 mph - N/A   Clear
11:53 PM 75.9 °F - 66.9 °F 74% 30.17 in 10.0 mi ESE 3.5 mph - N/A   Mostly Cloudy